STARLINK-34683 (64857 NORAD) Tracking and Keplerian Element Data

This shows tracking and keplerian element data for the satellite.

Feedback or suggestion? Click here.




ElementValue
Catalog64857
NameSTARLINK-34683
Epoch Orbit2345
Epoch Day354.17241304
Epoch Year2025
RAAN207.1568
Inclination97.6021
Eccentricity0.0001901
Argument of Perigee85.259
Mean Anonmoly274.8854
Mean Motion15.05650123
Decay Rate2.287E-05
L11 64857U 25152R 25354.17241304 .00002287 00000+0 16265-3 0 9997
L22 64857 97.6021 207.1568 0001901 85.2590 274.8854 15.05650123 23456



Live tracking and technical data element details for STARLINK-34683 (NORAD 64857). STARLINK-34683 can be tracked NOW for your location showing map with azimuth and elevation plus other details from your city location.







IsCatalogInMostPopularTable: catalog: 64857, numindb: 3
Update: records affected: 1



GetName: 64857 STARLINK-34683

Hit Count: updated at: Sun, 08 Feb 2026 08:39:27 GMT